Time,TemperatureF,DewpointF,PressureIn,WindDirection,WindDirectionDegrees,WindSpeedMPH,WindSpeedGustMPH,Humidity,HourlyPrecipIn,Conditions,Clouds,dailyrainin,SoftwareType,DateUTC
2013-06-30 00:01:00,66.6,62.6,29.68,NE,35,0.0,0.0,87,0.00,RA,,0.00,WeatherDisplay:10.37,2013-06-30 04:01:00,
2013-06-30 00:02:00,66.3,62.3,29.68,NE,35,0.0,0.0,87,0.00,CLR,,0.00,WeatherDisplay:10.37,2013-06-30 04:02:00,
2013-06-30 00:07:00,66.4,62.4,29.68,NE,35,0.0,0.0,87,0.00,CLR,,0.00,WeatherDisplay:10.37,2013-06-30 04:07:00,
2013-06-30 00:12:00,66.0,62.0,29.68,NE,35,0.0,0.0,87,0.00,CLR,,0.00,WeatherDisplay:10.37,2013-06-30 04:12:00,
2013-06-30 00:17:00,65.8,61.8,29.68,NE,35,0.0,0.0,87,0.00,CLR,,0.00,WeatherDisplay:10.37,2013-06-30 04:17:00,
2013-06-30 00:22:00,66.6,62.6,29.68,NE,35,0.0,0.0,87,0.00,CLR,,0.00,WeatherDisplay:10.37,2013-06-30 04:22:00,
2013-06-30 00:27:00,66.3,62.3,29.68,NE,35,0.0,0.0,87,0.00,CLR,,0.00,WeatherDisplay:10.37,2013-06-30 04:27:00,
2013-06-30 00:32:00,66.1,64.0,29.70,NE,35,0.0,0.0,93,0.00,CLR,,0.00,WeatherDisplay:10.37,2013-06-30 04:32:00,
2013-06-30 00:37:00,65.5,63.4,29.70,NE,35,0.0,0.0,93,0.00,CLR,,0.00,WeatherDisplay:10.37,2013-06-30 04:37:00,
2013-06-30 00:42:00,65.3,63.2,29.70,NE,35,0.0,0.0,93,0.00,CLR,,0.00,WeatherDisplay:10.37,2013-06-30 04:42:00,
2013-06-30 00:47:00,65.3,63.2,29.70,NE,35,0.0,0.0,93,0.00,CLR,,0.00,WeatherDisplay:10.37,2013-06-30 04:47:00,
2013-06-30 00:52:00,64.6,62.5,29.70,NE,35,0.0,0.0,93,0.00,CLR,,0.00,WeatherDisplay:10.37,2013-06-30 04:52:00,
2013-06-30 00:57:00,64.8,62.7,29.70,NE,35,0.0,0.0,93,0.00,CLR,,0.00,WeatherDisplay:10.37,2013-06-30 04:57:00,
2013-06-30 01:02:00,64.7,62.6,29.70,NE,35,0.0,0.0,93,0.00,CLR,,0.00,WeatherDisplay:10.37,2013-06-30 05:02:00,
2013-06-30 01:07:00,64.3,62.2,29.70,NE,35,0.0,0.0,93,0.00,CLR,,0.00,WeatherDisplay:10.37,2013-06-30 05:07:00,
2013-06-30 01:12:00,64.1,62.0,29.71,NE,35,0.0,0.0,93,0.00,CLR,,0.00,WeatherDisplay:10.37,2013-06-30 05:12:00,
2013-06-30 01:17:00,64.2,62.1,29.71,NE,35,0.0,0.0,93,0.00,CLR,,0.00,WeatherDisplay:10.37,2013-06-30 05:17:00,
2013-06-30 01:22:00,64.5,62.4,29.71,NE,35,0.0,0.0,93,0.00,CLR,,0.00,WeatherDisplay:10.37,2013-06-30 05:22:00,
2013-06-30 01:27:00,64.1,62.0,29.71,NE,35,0.0,0.0,93,0.00,CLR,,0.00,WeatherDisplay:10.37,2013-06-30 05:27:00,
2013-06-30 01:32:00,64.0,61.9,29.71,NE,35,0.0,0.0,93,0.00,CLR,,0.00,WeatherDisplay:10.37,2013-06-30 05:32:00,
2013-06-30 01:37:00,63.6,61.5,29.71,NE,35,0.0,0.0,93,0.00,CLR,,0.00,WeatherDisplay:10.37,2013-06-30 05:37:00,
2013-06-30 01:42:00,64.0,61.9,29.71,NE,35,0.0,0.0,93,0.00,CLR,,0.00,WeatherDisplay:10.37,2013-06-30 05:42:00,
2013-06-30 01:47:00,63.8,61.7,29.71,NE,35,0.0,0.0,93,0.00,CLR,,0.00,WeatherDisplay:10.37,2013-06-30 05:47:00,
2013-06-30 01:52:00,63.3,61.2,29.71,NE,35,0.0,0.0,93,0.00,CLR,,0.00,WeatherDisplay:10.37,2013-06-30 05:52:00,
2013-06-30 01:57:00,63.2,61.1,29.71,NE,35,0.0,0.0,93,0.00,CLR,,0.00,WeatherDisplay:10.37,2013-06-30 05:57:00,
2013-06-30 02:02:00,63.2,61.1,29.71,NE,35,0.0,0.0,93,0.00,CLR,,0.00,WeatherDisplay:10.37,2013-06-30 06:02:00,
2013-06-30 02:07:00,63.1,61.0,29.71,NE,35,0.0,0.0,93,0.00,CLR,,0.00,WeatherDisplay:10.37,2013-06-30 06:07:00,
2013-06-30 02:12:00,63.3,63.3,29.72,NE,35,0.0,0.0,100,0.00,BKN,,0.00,WeatherDisplay:10.37,2013-06-30 06:12:00,
2013-06-30 02:17:00,63.1,63.1,29.72,NE,35,0.0,0.0,100,0.00,BKN,,0.00,WeatherDisplay:10.37,2013-06-30 06:17:00,
2013-06-30 02:22:00,63.3,63.3,29.72,NE,35,0.0,0.0,100,0.00,BKN,,0.00,WeatherDisplay:10.37,2013-06-30 06:22:00,
2013-06-30 02:27:00,63.2,63.2,29.72,NE,35,0.0,0.0,100,0.00,BKN,,0.00,WeatherDisplay:10.37,2013-06-30 06:27:00,
2013-06-30 02:32:00,62.9,62.9,29.72,NE,35,0.0,0.0,100,0.00,BKN,,0.00,WeatherDisplay:10.37,2013-06-30 06:32:00,
2013-06-30 02:37:00,63.0,63.0,29.72,NE,35,0.0,0.0,100,0.00,BKN,,0.00,WeatherDisplay:10.37,2013-06-30 06:37:00,
2013-06-30 02:42:00,62.8,62.8,29.72,NE,35,0.0,0.0,100,0.00,BKN,,0.00,WeatherDisplay:10.37,2013-06-30 06:42:00,
2013-06-30 02:47:00,62.8,62.8,29.72,NE,35,0.0,0.0,100,0.00,BKN,,0.00,WeatherDisplay:10.37,2013-06-30 06:47:00,
2013-06-30 02:52:00,62.9,62.9,29.71,NE,35,0.0,0.0,100,0.00,SCT,,0.00,WeatherDisplay:10.37,2013-06-30 06:52:00,
2013-06-30 02:57:00,63.0,63.0,29.71,NE,35,0.0,0.0,100,0.00,SCT,,0.00,WeatherDisplay:10.37,2013-06-30 06:57:00,
2013-06-30 03:02:00,62.5,62.5,29.71,NE,35,0.0,0.0,100,0.00,SCT,,0.00,WeatherDisplay:10.37,2013-06-30 07:02:00,
2013-06-30 03:07:00,62.3,62.3,29.71,NE,35,0.0,0.0,100,0.00,SCT,,0.00,WeatherDisplay:10.37,2013-06-30 07:07:00,
2013-06-30 03:12:00,62.2,62.2,29.72,NE,35,0.0,0.0,100,0.00,BKN,,0.00,WeatherDisplay:10.37,2013-06-30 07:12:00,
2013-06-30 03:17:00,62.5,62.5,29.72,NE,35,0.0,0.0,100,0.00,BKN,,0.00,WeatherDisplay:10.37,2013-06-30 07:17:00,
2013-06-30 03:22:00,62.6,62.6,29.72,NE,35,0.0,0.0,100,0.00,BKN,,0.00,WeatherDisplay:10.37,2013-06-30 07:22:00,
2013-06-30 03:27:00,62.7,62.7,29.72,NE,35,0.0,0.0,100,0.00,BKN,,0.00,WeatherDisplay:10.37,2013-06-30 07:27:00,
2013-06-30 03:32:00,62.6,62.6,29.72,NE,35,0.0,0.0,100,0.00,BKN,,0.00,WeatherDisplay:10.37,2013-06-30 07:32:00,
2013-06-30 03:37:00,62.4,62.4,29.72,NE,35,0.0,0.0,100,0.00,BKN,,0.00,WeatherDisplay:10.37,2013-06-30 07:37:00,
2013-06-30 03:42:00,62.7,62.7,29.72,NE,35,0.0,0.0,100,0.00,BKN,,0.00,WeatherDisplay:10.37,2013-06-30 07:42:00,
2013-06-30 03:47:00,62.8,62.8,29.72,NE,35,0.0,0.0,100,0.00,BKN,,0.00,WeatherDisplay:10.37,2013-06-30 07:47:00,
2013-06-30 03:52:00,63.0,63.0,29.73,NE,35,0.0,0.0,100,0.00,FEW,,0.00,WeatherDisplay:10.37,2013-06-30 07:52:00,
2013-06-30 03:57:00,63.0,63.0,29.73,NE,35,0.0,0.0,100,0.00,FEW,,0.00,WeatherDisplay:10.37,2013-06-30 07:57:00,
2013-06-30 04:02:00,62.6,62.6,29.73,NE,35,0.0,0.0,100,0.00,FEW,,0.00,WeatherDisplay:10.37,2013-06-30 08:02:00,
2013-06-30 04:07:00,62.8,62.8,29.73,NE,35,0.0,0.0,100,0.00,FEW,,0.00,WeatherDisplay:10.37,2013-06-30 08:07:00,
2013-06-30 04:12:00,62.7,61.5,29.73,NE,35,0.0,0.0,96,0.00,FEW,,0.00,WeatherDisplay:10.37,2013-06-30 08:12:00,
2013-06-30 04:17:00,62.6,61.4,29.73,NE,35,0.0,0.0,96,0.00,FEW,,0.00,WeatherDisplay:10.37,2013-06-30 08:17:00,
2013-06-30 04:22:00,62.3,61.1,29.73,NE,35,0.0,0.0,96,0.00,FEW,,0.00,WeatherDisplay:10.37,2013-06-30 08:22:00,
2013-06-30 04:27:00,62.5,61.3,29.73,NE,35,0.0,0.0,96,0.00,FEW,,0.00,WeatherDisplay:10.37,2013-06-30 08:27:00,
2013-06-30 04:32:00,62.4,61.2,29.73,NE,35,0.0,0.0,96,0.00,FEW,,0.00,WeatherDisplay:10.37,2013-06-30 08:32:00,
2013-06-30 04:37:00,62.3,61.1,29.73,NE,35,0.0,0.0,96,0.00,FEW,,0.00,WeatherDisplay:10.37,2013-06-30 08:37:00,
2013-06-30 04:42:00,62.0,60.8,29.73,NE,35,0.0,0.0,96,0.00,FEW,,0.00,WeatherDisplay:10.37,2013-06-30 08:42:00,
2013-06-30 04:47:00,61.9,60.7,29.73,NE,35,0.0,0.0,96,0.00,FEW,,0.00,WeatherDisplay:10.37,2013-06-30 08:47:00,
2013-06-30 04:52:00,62.1,60.9,29.73,NE,35,0.0,0.0,96,0.00,FEW,,0.00,WeatherDisplay:10.37,2013-06-30 08:52:00,
2013-06-30 04:57:00,62.1,60.9,29.73,NE,35,0.0,0.0,96,0.00,FEW,,0.00,WeatherDisplay:10.37,2013-06-30 08:57:00,
2013-06-30 05:02:00,61.8,61.8,29.74,NE,35,0.0,0.0,100,0.00,CLR,,0.00,WeatherDisplay:10.37,2013-06-30 09:02:00,
2013-06-30 05:07:00,62.0,62.0,29.74,NE,35,0.0,0.0,100,0.00,CLR,,0.00,WeatherDisplay:10.37,2013-06-30 09:07:00,
2013-06-30 05:12:00,62.1,62.1,29.74,NE,35,0.0,0.0,100,0.00,CLR,,0.00,WeatherDisplay:10.37,2013-06-30 09:12:00,
2013-06-30 05:17:00,61.9,61.9,29.74,NE,35,0.0,0.0,100,0.00,CLR,,0.00,WeatherDisplay:10.37,2013-06-30 09:17:00,
2013-06-30 05:22:00,61.7,61.7,29.74,NE,35,0.0,0.0,100,0.00,CLR,,0.00,WeatherDisplay:10.37,2013-06-30 09:22:00,
2013-06-30 05:27:00,61.6,61.6,29.74,NE,35,0.0,0.0,100,0.00,CLR,,0.00,WeatherDisplay:10.37,2013-06-30 09:27:00,
2013-06-30 05:32:00,61.6,61.6,29.74,NE,35,0.0,0.0,100,0.00,CLR,,0.00,WeatherDisplay:10.37,2013-06-30 09:32:00,
2013-06-30 05:37:00,61.4,61.4,29.74,NE,35,0.0,0.0,100,0.00,CLR,,0.00,WeatherDisplay:10.37,2013-06-30 09:37:00,
2013-06-30 05:42:00,61.2,61.2,29.74,NE,35,0.0,0.0,100,0.00,CLR,,0.00,WeatherDisplay:10.37,2013-06-30 09:42:00,
2013-06-30 05:47:00,61.4,61.4,29.74,NE,35,0.0,0.0,100,0.00,CLR,,0.00,WeatherDisplay:10.37,2013-06-30 09:47:00,
2013-06-30 05:52:00,62.1,62.1,29.74,NE,35,0.0,0.0,100,0.00,CLR,,0.00,WeatherDisplay:10.37,2013-06-30 09:52:00,
2013-06-30 05:57:00,62.0,62.0,29.74,NE,35,0.0,0.0,100,0.00,CLR,,0.00,WeatherDisplay:10.37,2013-06-30 09:57:00,
2013-06-30 06:02:00,62.2,62.2,29.76,NE,35,0.0,0.0,100,0.00,CLR,,0.00,WeatherDisplay:10.37,2013-06-30 10:02:00,
2013-06-30 06:07:00,62.4,62.4,29.76,NE,35,0.0,0.0,100,0.00,CLR,,0.00,WeatherDisplay:10.37,2013-06-30 10:07:00,
2013-06-30 06:12:00,62.4,62.4,29.76,NE,35,0.0,0.0,100,0.00,CLR,,0.00,WeatherDisplay:10.37,2013-06-30 10:12:00,
2013-06-30 06:17:00,62.6,62.6,29.76,NE,35,0.0,0.0,100,0.00,CLR,,0.00,WeatherDisplay:10.37,2013-06-30 10:17:00,
2013-06-30 06:22:00,62.7,62.7,29.76,NE,35,0.0,0.0,100,0.00,CLR,,0.00,WeatherDisplay:10.37,2013-06-30 10:22:00,
2013-06-30 06:27:00,62.5,62.5,29.76,NE,35,0.0,0.0,100,0.00,CLR,,0.00,WeatherDisplay:10.37,2013-06-30 10:27:00,
2013-06-30 06:32:00,62.8,62.8,29.76,NE,35,0.0,0.0,100,0.00,CLR,,0.00,WeatherDisplay:10.37,2013-06-30 10:32:00,
2013-06-30 06:37:00,63.2,63.2,29.76,NE,35,0.0,0.0,100,0.00,CLR,,0.00,WeatherDisplay:10.37,2013-06-30 10:37:00,
2013-06-30 06:42:00,63.4,63.4,29.76,NE,35,0.0,0.0,100,0.00,CLR,,0.00,WeatherDisplay:10.37,2013-06-30 10:42:00,
2013-06-30 06:47:00,63.6,63.6,29.76,NE,35,0.0,0.0,100,0.00,CLR,,0.00,WeatherDisplay:10.37,2013-06-30 10:47:00,
2013-06-30 06:52:00,63.9,63.9,29.76,NE,35,0.0,0.0,100,0.00,CLR,,0.00,WeatherDisplay:10.37,2013-06-30 10:52:00,
2013-06-30 06:57:00,64.1,64.1,29.76,NE,35,0.0,0.0,100,0.00,CLR,,0.00,WeatherDisplay:10.37,2013-06-30 10:57:00,
2013-06-30 07:02:00,64.6,63.4,29.79,NE,35,0.0,0.0,96,0.00,CLR,,0.00,WeatherDisplay:10.37,2013-06-30 11:02:00,
2013-06-30 07:07:00,64.7,63.5,29.79,NE,35,0.0,0.0,96,0.00,CLR,,0.00,WeatherDisplay:10.37,2013-06-30 11:07:00,
2013-06-30 07:12:00,65.1,63.9,29.79,NE,35,0.0,0.0,96,0.00,CLR,,0.00,WeatherDisplay:10.37,2013-06-30 11:12:00,
2013-06-30 07:17:00,65.2,64.0,29.79,NE,35,0.0,0.0,96,0.00,CLR,,0.00,WeatherDisplay:10.37,2013-06-30 11:17:00,
2013-06-30 07:22:00,64.9,61.3,29.79,NE,35,0.0,0.0,88,0.00,FEW,,0.00,WeatherDisplay:10.37,2013-06-30 11:22:00,
2013-06-30 07:27:00,65.1,61.5,29.79,NE,35,0.0,0.0,88,0.00,FEW,,0.00,WeatherDisplay:10.37,2013-06-30 11:27:00,
2013-06-30 07:32:00,65.4,61.8,29.79,NE,35,0.0,0.0,88,0.00,FEW,,0.00,WeatherDisplay:10.37,2013-06-30 11:32:00,
2013-06-30 07:37:00,65.5,61.9,29.79,NE,35,0.0,0.0,88,0.00,FEW,,0.00,WeatherDisplay:10.37,2013-06-30 11:37:00,
2013-06-30 07:42:00,65.6,61.9,29.79,NE,35,0.0,0.0,88,0.00,FEW,,0.00,WeatherDisplay:10.37,2013-06-30 11:42:00,
2013-06-30 07:47:00,66.0,62.3,29.79,NE,35,0.0,0.0,88,0.00,FEW,,0.00,WeatherDisplay:10.37,2013-06-30 11:47:00,
2013-06-30 07:52:00,66.3,64.5,29.81,NE,35,0.0,0.0,94,0.00,BKN,,0.00,WeatherDisplay:10.37,2013-06-30 11:52:00,
2013-06-30 07:57:00,67.1,65.3,29.81,NE,35,1.0,0.0,94,0.00,BKN,,0.00,WeatherDisplay:10.37,2013-06-30 11:57:00,
2013-06-30 08:02:00,67.4,65.6,29.81,NE,37,0.0,0.0,94,0.00,BKN,,0.00,WeatherDisplay:10.37,2013-06-30 12:02:00,
2013-06-30 08:07:00,67.6,65.8,29.81,NE,37,1.1,1.1,94,0.00,BKN,,0.00,WeatherDisplay:10.37,2013-06-30 12:07:00,
2013-06-30 08:12:00,68.1,65.1,29.81,NE,37,0.0,0.0,90,0.00,FEW,,0.00,WeatherDisplay:10.37,2013-06-30 12:12:00,
2013-06-30 08:17:00,68.3,65.3,29.81,NE,48,2.3,2.3,90,0.00,FEW,,0.00,WeatherDisplay:10.37,2013-06-30 12:17:00,
2013-06-30 08:22:00,68.7,65.6,29.81,NE,48,0.0,0.0,90,0.00,FEW,,0.00,WeatherDisplay:10.37,2013-06-30 12:22:00,
2013-06-30 08:27:00,68.8,65.7,29.81,NE,48,0.0,0.0,90,0.00,FEW,,0.00,WeatherDisplay:10.37,2013-06-30 12:27:00,
2013-06-30 08:32:00,69.0,65.9,29.81,NE,48,0.0,0.0,90,0.00,FEW,,0.00,WeatherDisplay:10.37,2013-06-30 12:32:00,
2013-06-30 08:37:00,69.0,65.9,29.81,NE,48,0.0,0.0,90,0.00,FEW,,0.00,WeatherDisplay:10.37,2013-06-30 12:37:00,
2013-06-30 08:42:00,68.8,65.7,29.81,NE,48,1.0,1.0,90,0.00,FEW,,0.00,WeatherDisplay:10.37,2013-06-30 12:42:00,
2013-06-30 08:47:00,70.0,66.9,29.81,NE,48,0.0,0.0,90,0.00,FEW,,0.00,WeatherDisplay:10.37,2013-06-30 12:47:00,
2013-06-30 08:52:00,69.7,66.6,29.81,NE,48,0.0,0.0,90,0.00,FEW,,0.00,WeatherDisplay:10.37,2013-06-30 12:52:00,
2013-06-30 08:57:00,70.2,67.1,29.81,NE,48,0.0,0.0,90,0.00,FEW,,0.00,WeatherDisplay:10.37,2013-06-30 12:57:00,
2013-06-30 09:02:00,70.3,67.2,29.81,NE,48,0.0,0.0,90,0.00,FEW,,0.00,WeatherDisplay:10.37,2013-06-30 13:02:00,
2013-06-30 09:07:00,70.6,67.5,29.81,NE,48,1.1,1.1,90,0.00,FEW,,0.00,WeatherDisplay:10.37,2013-06-30 13:07:00,
2013-06-30 09:13:00,71.1,65.0,29.83,NE,48,1.1,1.1,81,0.00,SCT,,0.00,WeatherDisplay:10.37,2013-06-30 13:13:00,
2013-06-30 09:18:00,71.2,65.1,29.83,NE,48,0.0,0.0,81,0.00,SCT,,0.00,WeatherDisplay:10.37,2013-06-30 13:18:00,
2013-06-30 09:23:00,71.2,65.1,29.83,NE,48,0.0,0.0,81,0.00,SCT,,0.00,WeatherDisplay:10.37,2013-06-30 13:23:00,
2013-06-30 09:28:00,71.5,65.4,29.83,NE,48,0.0,0.0,81,0.00,SCT,,0.00,WeatherDisplay:10.37,2013-06-30 13:28:00,
2013-06-30 09:33:00,71.8,65.7,29.83,East,86,2.3,2.3,81,0.00,SCT,,0.00,WeatherDisplay:10.37,2013-06-30 13:33:00,
2013-06-30 09:38:00,72.0,65.8,29.83,East,86,1.1,0.0,81,0.00,SCT,,0.00,WeatherDisplay:10.37,2013-06-30 13:38:00,
2013-06-30 09:43:00,72.6,66.4,29.83,East,86,0.0,0.0,81,0.00,SCT,,0.00,WeatherDisplay:10.37,2013-06-30 13:43:00,
2013-06-30 09:48:00,72.8,66.6,29.83,East,86,1.0,1.0,81,0.00,SCT,,0.00,WeatherDisplay:10.37,2013-06-30 13:48:00,
2013-06-30 09:53:00,73.5,67.3,29.83,East,86,0.0,0.0,81,0.00,SCT,,0.00,WeatherDisplay:10.37,2013-06-30 13:53:00,
2013-06-30 09:58:00,73.0,66.8,29.83,East,86,2.3,2.3,81,0.00,SCT,,0.00,WeatherDisplay:10.37,2013-06-30 13:58:00,
2013-06-30 10:03:00,72.5,65.2,29.83,East,86,0.0,0.0,78,0.00,CLR,,0.00,WeatherDisplay:10.37,2013-06-30 14:03:00,
2013-06-30 10:08:00,73.1,65.8,29.83,East,86,0.0,0.0,78,0.00,CLR,,0.00,WeatherDisplay:10.37,2013-06-30 14:08:00,
2013-06-30 10:13:00,74.3,67.0,29.83,East,85,0.0,0.0,78,0.00,CLR,,0.00,WeatherDisplay:10.37,2013-06-30 14:13:00,
2013-06-30 10:18:00,75.1,67.8,29.83,East,85,0.0,0.0,78,0.00,CLR,,0.00,WeatherDisplay:10.37,2013-06-30 14:18:00,
2013-06-30 10:23:00,74.8,67.5,29.83,East,85,1.1,1.1,78,0.00,CLR,,0.00,WeatherDisplay:10.37,2013-06-30 14:23:00,
2013-06-30 10:28:00,75.1,67.8,29.83,East,84,1.1,0.0,78,0.00,CLR,,0.00,WeatherDisplay:10.37,2013-06-30 14:28:00,
2013-06-30 10:33:00,75.7,68.4,29.83,East,85,1.1,1.1,78,0.00,CLR,,0.00,WeatherDisplay:10.37,2013-06-30 14:33:00,
2013-06-30 10:38:00,75.3,68.0,29.83,East,85,1.1,1.1,78,0.00,CLR,,0.00,WeatherDisplay:10.37,2013-06-30 14:38:00,
2013-06-30 10:43:00,74.8,67.5,29.83,East,85,2.3,2.3,78,0.00,CLR,,0.00,WeatherDisplay:10.37,2013-06-30 14:43:00,
2013-06-30 10:48:00,75.2,67.9,29.83,East,84,1.1,1.1,78,0.00,CLR,,0.00,WeatherDisplay:10.37,2013-06-30 14:48:00,
2013-06-30 10:53:00,75.7,68.4,29.83,East,84,1.1,1.1,78,0.00,CLR,,0.00,WeatherDisplay:10.37,2013-06-30 14:53:00,
2013-06-30 10:58:00,76.0,68.6,29.83,East,84,1.1,1.1,78,0.00,CLR,,0.00,WeatherDisplay:10.37,2013-06-30 14:58:00,
2013-06-30 11:03:00,75.7,65.6,29.83,East,84,0.0,0.0,71,0.00,CLR,,0.00,WeatherDisplay:10.37,2013-06-30 15:03:00,
2013-06-30 11:08:00,76.0,65.9,29.83,East,84,1.1,1.1,71,0.00,CLR,,0.00,WeatherDisplay:10.37,2013-06-30 15:08:00,
2013-06-30 11:13:00,76.1,66.0,29.83,East,84,1.1,1.1,71,0.00,CLR,,0.00,WeatherDisplay:10.37,2013-06-30 15:13:00,
2013-06-30 11:18:00,75.8,65.7,29.83,East,84,1.1,1.1,71,0.00,CLR,,0.00,WeatherDisplay:10.37,2013-06-30 15:18:00,
2013-06-30 11:23:00,76.2,66.1,29.83,East,84,1.1,1.1,71,0.00,CLR,,0.00,WeatherDisplay:10.37,2013-06-30 15:23:00,
2013-06-30 11:28:00,77.4,67.3,29.83,East,84,1.1,1.1,71,0.00,CLR,,0.00,WeatherDisplay:10.37,2013-06-30 15:28:00,
2013-06-30 11:33:00,77.1,67.0,29.83,East,84,1.1,1.1,71,0.00,CLR,,0.00,WeatherDisplay:10.37,2013-06-30 15:33:00,
2013-06-30 11:38:00,77.9,67.7,29.83,East,84,2.3,2.3,71,0.00,CLR,,0.00,WeatherDisplay:10.37,2013-06-30 15:38:00,
2013-06-30 11:43:00,77.6,67.4,29.83,East,84,1.1,1.1,71,0.00,CLR,,0.00,WeatherDisplay:10.37,2013-06-30 15:43:00,
2013-06-30 11:48:00,77.0,66.9,29.83,East,84,1.1,1.1,71,0.00,CLR,,0.00,WeatherDisplay:10.37,2013-06-30 15:48:00,
2013-06-30 11:53:00,77.8,67.6,29.83,ENE,76,2.3,2.3,71,0.00,CLR,,0.00,WeatherDisplay:10.37,2013-06-30 15:53:00,
2013-06-30 11:58:00,77.7,67.5,29.83,ENE,76,1.1,1.1,71,0.00,CLR,,0.00,WeatherDisplay:10.37,2013-06-30 15:58:00,
2013-06-30 12:03:00,77.8,67.6,29.83,ENE,76,2.3,2.3,71,0.00,CLR,,0.00,WeatherDisplay:10.37,2013-06-30 16:03:00,
2013-06-30 12:08:00,78.5,68.3,29.83,ENE,76,1.1,1.1,71,0.00,CLR,,0.00,WeatherDisplay:10.37,2013-06-30 16:08:00,
2013-06-30 12:13:00,78.8,66.5,29.83,ENE,76,3.0,3.0,66,0.00,CLR,,0.00,WeatherDisplay:10.37,2013-06-30 16:13:00,
2013-06-30 12:18:00,78.6,66.3,29.83,ENE,75,2.3,2.3,66,0.00,CLR,,0.00,WeatherDisplay:10.37,2013-06-30 16:18:00,
2013-06-30 12:23:00,78.3,66.0,29.83,ENE,75,1.1,1.1,66,0.00,CLR,,0.00,WeatherDisplay:10.37,2013-06-30 16:23:00,
2013-06-30 12:28:00,78.4,66.1,29.83,ENE,75,2.3,2.3,66,0.00,CLR,,0.00,WeatherDisplay:10.37,2013-06-30 16:28:00,
2013-06-30 12:33:00,79.8,67.4,29.83,ENE,75,1.1,1.1,66,0.00,CLR,,0.00,WeatherDisplay:10.37,2013-06-30 16:33:00,
2013-06-30 12:38:00,79.3,67.0,29.83,ENE,73,1.1,1.1,66,0.00,CLR,,0.00,WeatherDisplay:10.37,2013-06-30 16:38:00,
2013-06-30 12:43:00,79.1,66.8,29.83,ENE,72,1.1,1.1,66,0.00,CLR,,0.00,WeatherDisplay:10.37,2013-06-30 16:43:00,
2013-06-30 12:48:00,78.7,66.4,29.83,ENE,73,1.1,1.1,66,0.00,CLR,,0.00,WeatherDisplay:10.37,2013-06-30 16:48:00,
2013-06-30 12:53:00,78.7,66.4,29.83,ENE,73,1.1,1.1,66,0.00,CLR,,0.00,WeatherDisplay:10.37,2013-06-30 16:53:00,
2013-06-30 12:58:00,78.9,66.6,29.83,NE,52,2.3,2.3,66,0.00,CLR,,0.00,WeatherDisplay:10.37,2013-06-30 16:58:00,
2013-06-30 13:03:00,79.7,67.3,29.83,NE,52,1.1,1.1,66,0.00,CLR,,0.00,WeatherDisplay:10.37,2013-06-30 17:03:00,
2013-06-30 13:08:00,79.3,67.0,29.83,NE,52,2.3,2.3,66,0.00,CLR,,0.00,WeatherDisplay:10.37,2013-06-30 17:08:00,
2013-06-30 13:13:00,79.4,60.2,29.83,NE,52,2.3,2.3,52,0.00,CLR,,0.00,WeatherDisplay:10.37,2013-06-30 17:13:00,
2013-06-30 13:18:00,79.6,60.4,29.83,ESE,105,3.5,3.5,52,0.00,CLR,,0.00,WeatherDisplay:10.37,2013-06-30 17:18:00,
2013-06-30 13:23:00,80.0,60.8,29.83,ESE,102,3.5,3.5,52,0.00,CLR,,0.00,WeatherDisplay:10.37,2013-06-30 17:23:00,
2013-06-30 13:28:00,79.6,60.4,29.83,ESE,102,1.1,1.1,52,0.00,CLR,,0.00,WeatherDisplay:10.37,2013-06-30 17:28:00,
2013-06-30 13:33:00,78.7,59.6,29.83,East,79,2.3,2.3,52,0.00,CLR,,0.00,WeatherDisplay:10.37,2013-06-30 17:33:00,
2013-06-30 13:38:00,77.7,58.7,29.83,East,79,2.3,2.3,52,0.00,CLR,,0.00,WeatherDisplay:10.37,2013-06-30 17:38:00,
2013-06-30 13:43:00,77.7,58.7,29.83,ENE,77,2.3,2.3,52,0.00,CLR,,0.00,WeatherDisplay:10.37,2013-06-30 17:43:00,
2013-06-30 13:48:00,78.1,59.0,29.83,ENE,66,2.3,2.3,52,0.00,CLR,,0.00,WeatherDisplay:10.37,2013-06-30 17:48:00,
2013-06-30 13:53:00,78.4,59.3,29.83,ENE,66,2.0,2.0,52,0.00,CLR,,0.00,WeatherDisplay:10.37,2013-06-30 17:53:00,
2013-06-30 13:58:00,79.4,60.2,29.83,North,3,3.0,3.0,52,0.00,CLR,,0.00,WeatherDisplay:10.37,2013-06-30 17:58:00,
2013-06-30 14:03:00,79.2,60.1,29.83,NNW,341,1.1,1.1,52,0.00,CLR,,0.00,WeatherDisplay:10.37,2013-06-30 18:03:00,
2013-06-30 14:08:00,79.0,59.9,29.83,NNW,342,3.5,3.5,52,0.00,CLR,,0.00,WeatherDisplay:10.37,2013-06-30 18:08:00,
2013-06-30 14:13:00,78.6,60.0,29.82,NNW,342,2.3,2.3,53,0.00,FEW,,0.00,WeatherDisplay:10.37,2013-06-30 18:13:00,
2013-06-30 14:18:00,79.3,60.7,29.82,NNW,342,1.1,1.1,53,0.00,FEW,,0.00,WeatherDisplay:10.37,2013-06-30 18:18:00,
2013-06-30 14:23:00,79.2,60.6,29.82,NNW,342,2.3,2.3,53,0.00,FEW,,0.00,WeatherDisplay:10.37,2013-06-30 18:23:00,
2013-06-30 14:28:00,79.1,60.5,29.82,NNW,344,2.3,2.3,53,0.00,FEW,,0.00,WeatherDisplay:10.37,2013-06-30 18:28:00,
2013-06-30 14:33:00,79.2,60.6,29.82,NNW,344,2.3,2.3,53,0.00,FEW,,0.00,WeatherDisplay:10.37,2013-06-30 18:33:00,
2013-06-30 14:38:00,79.5,60.9,29.82,NNW,344,1.1,1.1,53,0.00,FEW,,0.00,WeatherDisplay:10.37,2013-06-30 18:38:00,
2013-06-30 14:43:00,79.1,60.5,29.82,ENE,70,2.3,2.3,53,0.00,FEW,,0.00,WeatherDisplay:10.37,2013-06-30 18:43:00,
2013-06-30 14:48:00,78.8,60.2,29.82,ENE,69,2.3,2.3,53,0.00,FEW,,0.00,WeatherDisplay:10.37,2013-06-30 18:48:00,
2013-06-30 14:53:00,78.8,60.2,29.82,ENE,69,2.3,2.3,53,0.00,FEW,,0.00,WeatherDisplay:10.37,2013-06-30 18:53:00,
2013-06-30 14:58:00,79.3,60.7,29.82,ENE,69,1.1,1.1,53,0.00,FEW,,0.00,WeatherDisplay:10.37,2013-06-30 18:58:00,
2013-06-30 15:03:00,78.9,60.8,29.82,ENE,69,1.0,1.0,54,0.00,BKN,,0.00,WeatherDisplay:10.37,2013-06-30 19:03:00,
2013-06-30 15:08:00,78.6,60.6,29.82,ENE,70,2.3,2.3,54,0.00,BKN,,0.00,WeatherDisplay:10.37,2013-06-30 19:08:00,
2013-06-30 15:13:00,78.5,60.5,29.82,ENE,63,2.3,2.3,54,0.00,BKN,,0.00,WeatherDisplay:10.37,2013-06-30 19:13:00,
2013-06-30 15:18:00,78.7,60.7,29.82,ENE,63,0.0,0.0,54,0.00,BKN,,0.00,WeatherDisplay:10.37,2013-06-30 19:18:00,
2013-06-30 15:23:00,78.7,60.7,29.82,ENE,63,0.0,0.2,54,0.00,BKN,,0.00,WeatherDisplay:10.37,2013-06-30 19:23:00,
2013-06-30 15:28:00,79.3,61.2,29.82,ENE,63,1.1,0.0,54,0.00,BKN,,0.00,WeatherDisplay:10.37,2013-06-30 19:28:00,
2013-06-30 15:33:00,79.6,61.5,29.82,ENE,63,1.1,1.1,54,0.00,BKN,,0.00,WeatherDisplay:10.37,2013-06-30 19:33:00,
2013-06-30 15:38:00,79.2,61.1,29.82,ENE,63,2.3,2.3,54,0.00,BKN,,0.00,WeatherDisplay:10.37,2013-06-30 19:38:00,
2013-06-30 15:43:00,79.1,61.0,29.82,ENE,63,1.1,1.1,54,0.00,BKN,,0.00,WeatherDisplay:10.37,2013-06-30 19:43:00,
2013-06-30 15:48:00,79.1,61.0,29.82,ENE,63,0.0,0.0,54,0.00,BKN,,0.00,WeatherDisplay:10.37,2013-06-30 19:48:00,
2013-06-30 15:53:00,79.1,61.0,29.82,ENE,64,1.1,1.1,54,0.00,BKN,,0.00,WeatherDisplay:10.37,2013-06-30 19:53:00,
2013-06-30 15:58:00,79.3,61.2,29.82,ENE,64,1.1,1.1,54,0.00,BKN,,0.00,WeatherDisplay:10.37,2013-06-30 19:58:00,
2013-06-30 16:03:00,79.2,61.1,29.82,ENE,64,2.3,2.3,54,0.00,BKN,,0.00,WeatherDisplay:10.37,2013-06-30 20:03:00,
2013-06-30 16:08:00,79.2,61.1,29.82,ENE,64,1.1,1.1,54,0.00,BKN,,0.00,WeatherDisplay:10.37,2013-06-30 20:08:00,
2013-06-30 16:13:00,78.9,62.9,29.82,ENE,65,2.3,2.3,58,0.00,SCT,,0.00,WeatherDisplay:10.37,2013-06-30 20:13:00,
2013-06-30 16:18:00,78.4,62.4,29.82,ENE,64,1.1,1.1,58,0.00,SCT,,0.00,WeatherDisplay:10.37,2013-06-30 20:18:00,
2013-06-30 16:23:00,78.3,62.3,29.82,ENE,64,0.0,0.0,58,0.00,SCT,,0.00,WeatherDisplay:10.37,2013-06-30 20:23:00,
2013-06-30 16:28:00,78.1,62.1,29.82,ENE,64,0.0,0.0,58,0.00,SCT,,0.00,WeatherDisplay:10.37,2013-06-30 20:28:00,
2013-06-30 16:33:00,77.9,61.9,29.82,ENE,64,1.1,1.1,58,0.00,SCT,,0.00,WeatherDisplay:10.37,2013-06-30 20:33:00,
2013-06-30 16:38:00,78.3,62.3,29.82,ENE,64,1.0,1.0,58,0.00,SCT,,0.00,WeatherDisplay:10.37,2013-06-30 20:38:00,
2013-06-30 16:43:00,79.1,63.1,29.82,ENE,64,2.3,2.3,58,0.00,SCT,,0.00,WeatherDisplay:10.37,2013-06-30 20:43:00,
2013-06-30 16:48:00,78.8,62.8,29.82,ENE,64,1.1,1.1,58,0.00,SCT,,0.00,WeatherDisplay:10.37,2013-06-30 20:48:00,
2013-06-30 16:53:00,78.6,62.6,29.82,ENE,65,2.3,2.3,58,0.00,SCT,,0.00,WeatherDisplay:10.37,2013-06-30 20:53:00,
2013-06-30 16:58:00,79.3,63.2,29.82,ENE,65,1.1,1.1,58,0.00,SCT,,0.00,WeatherDisplay:10.37,2013-06-30 20:58:00,
2013-06-30 17:03:00,79.5,65.3,29.82,ENE,65,1.1,0.0,62,0.00,CLR,,0.00,WeatherDisplay:10.37,2013-06-30 21:03:00,
2013-06-30 17:08:00,79.9,65.7,29.82,ENE,65,2.3,2.3,62,0.00,CLR,,0.00,WeatherDisplay:10.37,2013-06-30 21:08:00,
2013-06-30 17:13:00,79.6,65.4,29.82,NNW,333,1.1,1.1,62,0.00,CLR,,0.00,WeatherDisplay:10.37,2013-06-30 21:13:00,
2013-06-30 17:18:00,78.8,64.7,29.82,NNW,333,1.1,1.1,62,0.00,CLR,,0.00,WeatherDisplay:10.37,2013-06-30 21:18:00,
2013-06-30 17:23:00,78.1,64.0,29.82,NNW,333,1.1,1.1,62,0.00,CLR,,0.00,WeatherDisplay:10.37,2013-06-30 21:23:00,
2013-06-30 17:28:00,77.8,63.7,29.82,NNW,333,1.1,1.1,62,0.00,CLR,,0.00,WeatherDisplay:10.37,2013-06-30 21:28:00,
2013-06-30 17:33:00,77.7,63.6,29.82,NNW,335,2.3,2.3,62,0.00,CLR,,0.00,WeatherDisplay:10.37,2013-06-30 21:33:00,
2013-06-30 17:38:00,77.2,63.2,29.82,NNW,335,0.0,0.0,62,0.00,CLR,,0.00,WeatherDisplay:10.37,2013-06-30 21:38:00,
2013-06-30 17:43:00,76.7,62.7,29.82,NNW,335,1.1,1.1,62,0.00,CLR,,0.00,WeatherDisplay:10.37,2013-06-30 21:43:00,
2013-06-30 17:48:00,76.6,62.6,29.82,NNW,335,1.1,1.1,62,0.00,CLR,,0.00,WeatherDisplay:10.37,2013-06-30 21:48:00,
2013-06-30 17:53:00,76.4,62.4,29.82,NNW,335,0.0,0.0,62,0.00,CLR,,0.00,WeatherDisplay:10.37,2013-06-30 21:53:00,
2013-06-30 17:58:00,76.4,62.4,29.82,NNW,335,0.0,0.0,62,0.00,CLR,,0.00,WeatherDisplay:10.37,2013-06-30 21:58:00,
2013-06-30 18:03:00,75.9,61.9,29.82,NNW,335,1.1,0.0,62,0.00,CLR,,0.00,WeatherDisplay:10.37,2013-06-30 22:03:00,
2013-06-30 18:08:00,75.8,61.8,29.82,NNW,335,0.0,0.0,62,0.00,CLR,,0.00,WeatherDisplay:10.37,2013-06-30 22:08:00,
2013-06-30 18:13:00,75.5,64.6,29.84,NNW,335,1.1,1.1,69,0.00,FEW,,0.00,WeatherDisplay:10.37,2013-06-30 22:13:00,
2013-06-30 18:18:00,73.9,63.1,29.84,NNW,335,3.5,3.5,69,0.00,FEW,,0.00,WeatherDisplay:10.37,2013-06-30 22:18:00,
2013-06-30 18:23:00,73.2,62.4,29.84,NNW,333,3.5,3.5,69,0.00,FEW,,0.00,WeatherDisplay:10.37,2013-06-30 22:23:00,
2013-06-30 18:28:00,71.9,61.2,29.84,WSW,250,4.0,4.0,69,0.00,FEW,,0.00,WeatherDisplay:10.37,2013-06-30 22:28:00,
2013-06-30 18:33:00,67.2,56.7,29.84,West,276,2.3,2.3,69,0.02,RA,,0.02,WeatherDisplay:10.37,2013-06-30 22:33:00,
2013-06-30 18:38:00,64.3,53.9,29.84,West,268,3.5,3.5,69,0.13,RA,,0.15,WeatherDisplay:10.37,2013-06-30 22:38:00,
2013-06-30 18:43:00,64.0,53.6,29.84,West,269,0.0,0.0,69,0.24,RA,,0.24,WeatherDisplay:10.37,2013-06-30 22:43:00,
2013-06-30 18:48:00,63.9,53.5,29.84,West,270,0.0,0.0,69,0.25,RA,,0.25,WeatherDisplay:10.37,2013-06-30 22:48:00,
2013-06-30 18:53:00,64.4,54.0,29.84,West,269,0.0,0.0,69,0.25,FEW,,0.25,WeatherDisplay:10.37,2013-06-30 22:53:00,
2013-06-30 18:58:00,64.4,54.0,29.84,West,269,0.0,0.0,69,0.25,FEW,,0.25,WeatherDisplay:10.37,2013-06-30 22:58:00,
2013-06-30 19:03:00,63.4,57.5,29.89,West,274,3.5,3.5,81,0.25,-RA,,0.25,WeatherDisplay:10.37,2013-06-30 23:03:00,
2013-06-30 19:08:00,64.2,58.2,29.89,West,274,1.1,1.1,81,0.25,-RA,,0.25,WeatherDisplay:10.37,2013-06-30 23:08:00,
2013-06-30 19:13:00,64.4,58.4,29.89,West,274,0.0,0.0,81,0.25,-RA,,0.25,WeatherDisplay:10.37,2013-06-30 23:13:00,
2013-06-30 19:18:00,64.2,58.2,29.89,West,274,1.1,1.1,81,0.25,-RA,,0.25,WeatherDisplay:10.37,2013-06-30 23:18:00,
2013-06-30 19:23:00,64.5,59.2,29.90,West,272,0.0,0.6,83,0.26,-RA,,0.28,WeatherDisplay:10.37,2013-06-30 23:23:00,
2013-06-30 19:28:00,63.9,58.6,29.90,West,272,0.0,0.0,83,0.34,-RA,,0.35,WeatherDisplay:10.37,2013-06-30 23:28:00,
2013-06-30 19:33:00,64.5,59.2,29.90,North,355,1.1,1.1,83,0.35,-RA,,0.38,WeatherDisplay:10.37,2013-06-30 23:33:00,
2013-06-30 19:39:00,64.7,59.4,29.90,North,0,1.1,0.0,83,0.33,-RA,,0.46,WeatherDisplay:10.37,2013-06-30 23:39:00,
2013-06-30 19:44:00,64.4,59.1,29.90,North,0,1.1,0.0,83,0.22,-RA,,0.46,WeatherDisplay:10.37,2013-06-30 23:44:00,
2013-06-30 19:49:00,64.6,59.3,29.90,North,0,1.1,1.1,83,0.22,-RA,,0.47,WeatherDisplay:10.37,2013-06-30 23:49:00,
2013-06-30 19:54:00,64.4,59.1,29.90,North,0,0.0,0.0,83,0.22,-RA,,0.47,WeatherDisplay:10.37,2013-06-30 23:54:00,
2013-06-30 19:59:00,64.4,59.1,29.90,North,0,0.0,0.0,83,0.22,-RA,,0.47,WeatherDisplay:10.37,2013-06-30 23:59:00,
2013-06-30 20:04:00,64.1,58.8,29.90,North,0,0.0,0.0,83,0.22,-RA,,0.47,WeatherDisplay:10.37,2013-07-01 00:04:00,
2013-06-30 20:09:00,64.2,58.9,29.90,North,0,0.0,0.0,83,0.22,-RA,,0.47,WeatherDisplay:10.37,2013-07-01 00:09:00,
2013-06-30 20:14:00,64.1,61.7,29.91,North,0,0.0,0.0,92,0.22,-RA,,0.47,WeatherDisplay:10.37,2013-07-01 00:14:00,
2013-06-30 20:19:00,63.9,61.5,29.91,North,0,0.0,0.0,92,0.22,-RA,,0.47,WeatherDisplay:10.37,2013-07-01 00:19:00,
2013-06-30 20:24:00,63.9,61.5,29.91,North,0,0.0,0.0,92,0.19,-RA,,0.47,WeatherDisplay:10.37,2013-07-01 00:24:00,
2013-06-30 20:29:00,64.1,61.7,29.91,North,0,0.0,0.0,92,0.12,-RA,,0.47,WeatherDisplay:10.37,2013-07-01 00:29:00,
2013-06-30 20:34:00,64.3,61.9,29.91,North,0,0.0,0.0,92,0.09,-RA,,0.47,WeatherDisplay:10.37,2013-07-01 00:34:00,
2013-06-30 20:39:00,64.2,61.8,29.91,North,0,0.0,0.0,92,0.01,-RA,,0.47,WeatherDisplay:10.37,2013-07-01 00:39:00,
2013-06-30 20:44:00,64.1,61.7,29.91,North,0,0.0,0.0,92,0.01,-RA,,0.47,WeatherDisplay:10.37,2013-07-01 00:44:00,
2013-06-30 20:49:00,64.0,61.6,29.91,North,0,0.0,0.0,92,0.00,-RA,,0.47,WeatherDisplay:10.37,2013-07-01 00:49:00,
2013-06-30 20:54:00,63.9,61.5,29.91,North,0,0.0,0.0,92,0.00,-RA,,0.47,WeatherDisplay:10.37,2013-07-01 00:54:00,
2013-06-30 20:59:00,64.2,61.8,29.91,North,0,0.0,0.0,92,0.00,-RA,,0.47,WeatherDisplay:10.37,2013-07-01 00:59:00,
2013-06-30 21:04:00,64.1,61.7,29.91,North,0,0.0,0.0,92,0.00,-RA,,0.47,WeatherDisplay:10.37,2013-07-01 01:04:00,
2013-06-30 21:09:00,64.0,61.6,29.91,North,0,0.0,0.0,92,0.00,-RA,,0.47,WeatherDisplay:10.37,2013-07-01 01:09:00,
2013-06-30 21:14:00,64.1,62.9,29.90,North,0,0.0,0.0,96,0.00,CLR,,0.47,WeatherDisplay:10.37,2013-07-01 01:14:00,
2013-06-30 21:19:00,63.8,62.6,29.90,North,0,0.0,0.0,96,0.00,CLR,,0.47,WeatherDisplay:10.37,2013-07-01 01:19:00,
2013-06-30 21:24:00,64.0,62.8,29.90,North,0,0.0,0.0,96,0.00,CLR,,0.47,WeatherDisplay:10.37,2013-07-01 01:24:00,
2013-06-30 21:29:00,64.0,62.8,29.90,North,0,0.0,0.0,96,0.00,CLR,,0.47,WeatherDisplay:10.37,2013-07-01 01:29:00,
2013-06-30 21:30:00,63.9,62.7,29.90,North,0,0.0,0.0,96,0.00,CLR,,0.47,WeatherDisplay:10.37,2013-07-01 01:30:00,
2013-06-30 21:35:00,64.1,62.9,29.90,North,0,0.0,0.0,96,0.00,CLR,,0.47,WeatherDisplay:10.37,2013-07-01 01:35:00,
2013-06-30 21:40:00,64.0,62.8,29.90,North,0,0.0,0.0,96,0.00,CLR,,0.47,WeatherDisplay:10.37,2013-07-01 01:40:00,
2013-06-30 21:45:00,64.1,62.9,29.90,North,0,0.0,0.0,96,0.00,CLR,,0.47,WeatherDisplay:10.37,2013-07-01 01:45:00,
2013-06-30 21:50:00,64.1,62.9,29.90,North,0,0.0,0.0,96,0.00,CLR,,0.47,WeatherDisplay:10.37,2013-07-01 01:50:00,
2013-06-30 21:55:00,64.2,63.0,29.90,North,0,0.0,0.0,96,0.00,CLR,,0.47,WeatherDisplay:10.37,2013-07-01 01:55:00,
2013-06-30 22:00:00,64.0,62.9,29.90,North,0,0.0,0.0,96,0.00,CLR,,0.47,WeatherDisplay:10.37,2013-07-01 02:00:00,
2013-06-30 22:05:00,64.2,63.1,29.90,North,0,0.0,0.0,96,0.00,CLR,,0.47,WeatherDisplay:10.37,2013-07-01 02:05:00,
2013-06-30 22:10:00,64.1,62.9,29.90,North,0,0.0,0.0,96,0.00,CLR,,0.47,WeatherDisplay:10.37,2013-07-01 02:10:00,
2013-06-30 22:15:00,64.1,64.1,29.92,North,0,0.0,0.0,100,0.00,FEW,,0.47,WeatherDisplay:10.37,2013-07-01 02:15:00,
2013-06-30 22:20:00,64.2,64.2,29.92,North,0,0.0,0.0,100,0.00,FEW,,0.47,WeatherDisplay:10.37,2013-07-01 02:20:00,
2013-06-30 22:25:00,64.3,64.3,29.92,North,0,0.0,0.0,100,0.00,FEW,,0.47,WeatherDisplay:10.37,2013-07-01 02:25:00,
2013-06-30 22:30:00,64.3,64.3,29.92,North,0,0.0,0.0,100,0.00,FEW,,0.47,WeatherDisplay:10.37,2013-07-01 02:30:00,
2013-06-30 22:35:00,64.0,64.0,29.92,North,0,0.0,0.0,100,0.00,FEW,,0.47,WeatherDisplay:10.37,2013-07-01 02:35:00,
2013-06-30 22:40:00,64.0,64.0,29.92,North,0,0.0,0.0,100,0.00,FEW,,0.47,WeatherDisplay:10.37,2013-07-01 02:40:00,
2013-06-30 22:45:00,64.1,64.1,29.92,North,0,0.0,0.0,100,0.00,FEW,,0.47,WeatherDisplay:10.37,2013-07-01 02:45:00,
2013-06-30 22:50:00,64.1,64.1,29.92,North,0,0.0,0.0,100,0.00,FEW,,0.47,WeatherDisplay:10.37,2013-07-01 02:50:00,
2013-06-30 22:55:00,63.7,63.7,29.92,North,0,0.0,0.0,100,0.00,FEW,,0.47,WeatherDisplay:10.37,2013-07-01 02:55:00,
2013-06-30 23:00:00,63.9,63.9,29.92,North,0,0.0,0.0,100,0.00,FEW,,0.47,WeatherDisplay:10.37,2013-07-01 03:00:00,
2013-06-30 23:05:00,63.8,63.8,29.92,North,0,0.0,0.0,100,0.00,FEW,,0.47,WeatherDisplay:10.37,2013-07-01 03:05:00,
2013-06-30 23:10:00,63.9,63.9,29.92,North,0,0.0,0.0,100,0.00,FEW,,0.47,WeatherDisplay:10.37,2013-07-01 03:10:00,
2013-06-30 23:15:00,63.8,63.8,29.93,North,0,0.0,0.0,100,0.00,FEW,,0.47,WeatherDisplay:10.37,2013-07-01 03:15:00,
2013-06-30 23:20:00,63.9,63.9,29.93,North,0,0.0,0.0,100,0.00,FEW,,0.47,WeatherDisplay:10.37,2013-07-01 03:20:00,
2013-06-30 23:25:00,63.7,63.7,29.93,North,0,0.0,0.0,100,0.00,FEW,,0.47,WeatherDisplay:10.37,2013-07-01 03:25:00,
2013-06-30 23:30:00,63.7,63.7,29.93,North,0,0.0,0.0,100,0.00,FEW,,0.47,WeatherDisplay:10.37,2013-07-01 03:30:00,
2013-06-30 23:35:00,63.7,63.7,29.93,North,0,0.0,0.0,100,0.00,FEW,,0.47,WeatherDisplay:10.37,2013-07-01 03:35:00,
2013-06-30 23:40:00,63.6,63.6,29.93,North,0,0.0,0.0,100,0.00,FEW,,0.47,WeatherDisplay:10.37,2013-07-01 03:40:00,
2013-06-30 23:45:00,63.8,63.8,29.93,North,0,0.0,0.0,100,0.00,FEW,,0.47,WeatherDisplay:10.37,2013-07-01 03:45:00,
2013-06-30 23:50:00,63.9,63.9,29.93,North,0,0.0,0.0,100,0.00,FEW,,0.47,WeatherDisplay:10.37,2013-07-01 03:50:00,
2013-06-30 23:55:00,63.7,63.7,29.93,North,0,0.0,0.0,100,0.00,FEW,,0.47,WeatherDisplay:10.37,2013-07-01 03:55:00,